| time (UTC) | temp F | wind direction | speed MPH | gust MPH | rain 1hr in | rain 24hr in | rain mn in | humidity % | barometer mb |
| 20260509164545 | 54 | 99 | 3.0 | 8.0 | 0.00 | 0.00 | 0.00 | 45 | 1023.9 |
| 20260509164014 | 54 | 76 | 4.0 | 8.0 | 0.00 | 0.00 | 0.00 | 47 | 1023.9 |
| 20260509163513 | 55 | 114 | 3.0 | 7.0 | 0.00 | 0.00 | 0.00 | 46 | 1023.9 |
| 20260509163100 | 56 | 88 | 2.0 | 7.0 | 0.00 | 0.00 | 0.00 | 52 | 1023.8 |
| 20260509162522 | 56 | 107 | 2.0 | 7.0 | 0.00 | 0.00 | 0.00 | 53 | 1023.9 |
| 20260509162025 | 56 | 88 | 2.0 | 6.0 | 0.00 | 0.00 | 0.00 | 49 | 1023.7 |
| 20260509161808 | 56 | 121 | 1.0 | 3.0 | 0.00 | 0.00 | 0.00 | 48 | 1023.8 |
| 20260509161013 | 56 | 107 | 1.0 | 3.0 | 0.00 | 0.00 | 0.00 | 40 | 1023.9 |
| 20260509160514 | 55 | 168 | 0.0 | 5.0 | 0.00 | 0.00 | 0.00 | 43 | 1023.9 |
| 20260509160044 | 54 | 67 | 1.0 | 5.0 | 0.00 | 0.00 | 0.00 | 55 | 1023.9 |
| 20260509155512 | 54 | 69 | 2.0 | 3.0 | 0.00 | 0.00 | 0.00 | 43 | 1023.9 |
| 20260509155013 | 53 | 170 | 1.0 | 5.0 | 0.00 | 0.00 | 0.00 | 43 | 1023.9 |
| 20260509154536 | 52 | 203 | 2.0 | 5.0 | 0.00 | 0.00 | 0.00 | 40 | 1023.8 |
| 20260509154014 | 53 | 160 | 1.0 | 4.0 | 0.00 | 0.00 | 0.00 | 39 | 1023.8 |
| 20260509153518 | 53 | 215 | 2.0 | 4.0 | 0.00 | 0.00 | 0.00 | 41 | 1023.8 |
| 20260509153049 | 53 | 201 | 1.0 | 3.0 | 0.00 | 0.00 | 0.00 | 41 | 1023.7 |
| 20260509152513 | 52 | 169 | 0.0 | 3.0 | 0.00 | 0.00 | 0.00 | 42 | 1023.8 |
| 20260509152015 | 52 | 160 | 1.0 | 3.0 | 0.00 | 0.00 | 0.00 | 42 | 1023.8 |
| 20260509151547 | 52 | 126 | 1.0 | 3.0 | 0.00 | 0.00 | 0.00 | 48 | 1023.9 |
| 20260509151016 | 51 | 188 | 0.0 | 3.0 | 0.00 | 0.00 | 0.00 | 44 | 1023.9 |
| 20260509150517 | 50 | 124 | 1.0 | 4.0 | 0.00 | 0.00 | 0.00 | 43 | 1023.7 |
| 20260509150043 | 50 | 204 | 2.0 | 4.0 | 0.00 | 0.00 | 0.00 | 44 | 1023.7 |
| 20260509145516 | 49 | 205 | 1.0 | 4.0 | 0.00 | 0.00 | 0.00 | 45 | 1023.7 |
| 20260509145015 | 49 | 217 | 2.0 | 5.0 | 0.00 | 0.00 | 0.00 | 47 | 1023.6 |
| 20260509144600 | 49 | 239 | 3.0 | 5.0 | 0.00 | 0.00 | 0.00 | 46 | 1023.4 |
| 20260509144012 | 48 | 241 | 3.0 | 5.0 | 0.00 | 0.00 | 0.00 | 47 | 1023.4 |
| 20260509143513 | 47 | 251 | 3.0 | 5.0 | 0.00 | 0.00 | 0.00 | 48 | 1023.4 |
| 20260509143049 | 47 | 230 | 3.0 | 5.0 | 0.00 | 0.00 | 0.00 | 50 | 1023.4 |
| 20260509142514 | 46 | 244 | 3.0 | 5.0 | 0.00 | 0.00 | 0.00 | 51 | 1023.2 |
| 20260509142017 | 46 | 250 | 3.0 | 5.0 | 0.00 | 0.00 | 0.00 | 55 | 1023.3 |
| 20260509141549 | 45 | 242 | 3.0 | 5.0 | 0.00 | 0.00 | 0.00 | 57 | 1023.2 |
| 20260509141017 | 45 | 261 | 2.0 | 5.0 | 0.00 | 0.00 | 0.00 | 57 | 1023.1 |
| 20260509140513 | 45 | 243 | 3.0 | 5.0 | 0.00 | 0.00 | 0.00 | 57 | 1023.2 |
| 20260509140105 | 45 | 247 | 3.0 | 7.0 | 0.00 | 0.00 | 0.00 | 55 | 1023.2 |
| 20260509135516 | 45 | 225 | 4.0 | 7.0 | 0.00 | 0.00 | 0.00 | 55 | 1023.2 |
| 20260509135015 | 44 | 254 | 3.0 | 7.0 | 0.00 | 0.00 | 0.00 | 54 | 1023.1 |
| 20260509134553 | 44 | 243 | 3.0 | 6.0 | 0.00 | 0.00 | 0.00 | 55 | 1023.1 |
| 20260509134013 | 44 | 240 | 4.0 | 8.0 | 0.00 | 0.00 | 0.00 | 55 | 1022.9 |
| 20260509133513 | 44 | 234 | 4.0 | 8.0 | 0.00 | 0.00 | 0.00 | 54 | 1022.9 |
| 20260509133036 | 44 | 253 | 4.0 | 7.0 | 0.00 | 0.00 | 0.00 | 53 | 1023.0 |
| 20260509132514 | 43 | 239 | 4.0 | 7.0 | 0.00 | 0.00 | 0.00 | 54 | 1023.0 |
| 20260509132015 | 43 | 252 | 4.0 | 10.0 | 0.00 | 0.00 | 0.00 | 56 | 1022.9 |
| 20260509131553 | 42 | 253 | 4.0 | 10.0 | 0.00 | 0.00 | 0.00 | 57 | 1023.0 |
| 20260509131014 | 42 | 257 | 2.0 | 6.0 | 0.00 | 0.00 | 0.00 | 59 | 1022.9 |
| 20260509130515 | 41 | 240 | 3.0 | 5.0 | 0.00 | 0.00 | 0.00 | 60 | 1022.9 |
| 20260509130044 | 41 | 251 | 3.0 | 5.0 | 0.00 | 0.00 | 0.00 | 60 | 1022.8 |
| 20260509125515 | 41 | 276 | 3.0 | 7.0 | 0.00 | 0.00 | 0.00 | 60 | 1022.8 |
| 20260509125014 | 41 | 257 | 4.0 | 7.0 | 0.00 | 0.00 | 0.00 | 60 | 1022.7 |
| 20260509124550 | 41 | 247 | 4.0 | 7.0 | 0.00 | 0.00 | 0.00 | 61 | 1022.7 |
| 20260509124015 | 41 | 236 | 4.0 | 7.0 | 0.00 | 0.00 | 0.00 | 62 | 1022.8 |
| 20260509123515 | 40 | 254 | 4.0 | 7.0 | 0.00 | 0.00 | 0.00 | 63 | 1022.7 |
| 20260509123048 | 40 | 246 | 3.0 | 7.0 | 0.00 | 0.00 | 0.00 | 63 | 1022.7 |
| 20260509122515 | 40 | 254 | 2.0 | 5.0 | 0.00 | 0.00 | 0.00 | 63 | 1022.8 |
| 20260509122015 | 40 | 236 | 3.0 | 7.0 | 0.00 | 0.00 | 0.00 | 63 | 1022.8 |
| 20260509121559 | 40 | 248 | 4.0 | 7.0 | 0.00 | 0.00 | 0.00 | 64 | 1022.6 |
| 20260509121019 | 40 | 242 | 3.0 | 7.0 | 0.00 | 0.00 | 0.00 | 64 | 1022.7 |
| 20260509120514 | 40 | 244 | 3.0 | 8.0 | 0.00 | 0.00 | 0.00 | 64 | 1022.7 |
| 20260509120047 | 40 | 242 | 5.0 | 8.0 | 0.00 | 0.00 | 0.00 | 65 | 1022.7 |
| 20260509115513 | 40 | 250 | 3.0 | 7.0 | 0.00 | 0.00 | 0.00 | 65 | 1022.7 |
| 20260509115013 | 40 | 252 | 4.0 | 7.0 | 0.00 | 0.00 | 0.00 | 65 | 1022.8 |
| 20260509114552 | 40 | 251 | 4.0 | 9.0 | 0.00 | 0.00 | 0.00 | 65 | 1022.7 |
| 20260509114014 | 40 | 234 | 5.0 | 9.0 | 0.00 | 0.00 | 0.00 | 64 | 1022.6 |
| 20260509113516 | 41 | 244 | 5.0 | 8.0 | 0.00 | 0.00 | 0.00 | 64 | 1022.6 |
| 20260509113047 | 41 | 252 | 4.0 | 10.0 | 0.00 | 0.00 | 0.00 | 64 | 1022.6 |
| 20260509112515 | 40 | 248 | 6.0 | 10.0 | 0.00 | 0.00 | 0.00 | 65 | 1022.5 |
| 20260509112016 | 40 | 243 | 6.0 | 10.0 | 0.00 | 0.00 | 0.00 | 65 | 1022.6 |
| 20260509111813 | 41 | 252 | 6.0 | 10.0 | 0.00 | 0.00 | 0.00 | 64 | 1022.6 |
| 20260509111016 | 41 | 252 | 6.0 | 9.0 | 0.00 | 0.00 | 0.00 | 63 | 1022.8 |
| 20260509110512 | 41 | 248 | 5.0 | 9.0 | 0.00 | 0.00 | 0.00 | 63 | 1022.7 |
| 20260509110049 | 41 | 248 | 5.0 | 8.0 | 0.00 | 0.00 | 0.00 | 63 | 1022.8 |
| 20260509105515 | 41 | 223 | 3.0 | 9.0 | 0.00 | 0.00 | 0.00 | 63 | 1022.9 |
| 20260509105013 | 41 | 240 | 3.0 | 8.0 | 0.00 | 0.00 | 0.00 | 64 | 1022.7 |
| 20260509104551 | 41 | 237 | 4.0 | 10.0 | 0.00 | 0.00 | 0.00 | 63 | 1022.4 |
| 20260509104015 | 41 | 251 | 5.0 | 16.0 | 0.00 | 0.00 | 0.00 | 64 | 1022.4 |
| 20260509103515 | 41 | 238 | 7.0 | 16.0 | 0.00 | 0.00 | 0.00 | 64 | 1022.1 |
| 20260509103053 | 41 | 235 | 6.0 | 13.0 | 0.00 | 0.00 | 0.00 | 64 | 1022.2 |
| 20260509102516 | 41 | 240 | 7.0 | 13.0 | 0.00 | 0.00 | 0.00 | 64 | 1022.1 |
| 20260509102015 | 41 | 225 | 9.0 | 13.0 | 0.00 | 0.00 | 0.00 | 64 | 1021.9 |
| 20260509101547 | 41 | 248 | 9.0 | 13.0 | 0.00 | 0.00 | 0.00 | 64 | 1021.9 |
| 20260509101016 | 41 | 244 | 9.0 | 13.0 | 0.00 | 0.00 | 0.00 | 64 | 1022.0 |
| 20260509100515 | 41 | 209 | 8.0 | 13.0 | 0.00 | 0.00 | 0.00 | 64 | 1021.8 |
| 20260509100051 | 41 | 236 | 8.0 | 11.0 | 0.00 | 0.00 | 0.00 | 64 | 1021.9 |
| 20260509095515 | 41 | 259 | 8.0 | 11.0 | 0.00 | 0.00 | 0.00 | 64 | 1022.0 |
| 20260509095015 | 41 | 254 | 7.0 | 12.0 | 0.00 | 0.00 | 0.00 | 64 | 1022.1 |
| 20260509094947 | 41 | 239 | 8.0 | 12.0 | 0.00 | 0.00 | 0.00 | 64 | 1022.1 |
| 20260509094027 | 41 | 252 | 8.0 | 12.0 | 0.00 | 0.00 | 0.00 | 64 | 1022.1 |
| 20260509093519 | 41 | 230 | 8.0 | 12.0 | 0.00 | 0.00 | 0.00 | 63 | 1021.9 |
| 20260509093055 | 42 | 219 | 9.0 | 14.0 | 0.00 | 0.00 | 0.00 | 63 | 1021.8 |
| 20260509092520 | 42 | 240 | 10.0 | 16.0 | 0.00 | 0.00 | 0.00 | 63 | 1021.7 |
| 20260509092020 | 42 | 251 | 10.0 | 16.0 | 0.00 | 0.00 | 0.00 | 63 | 1021.8 |
| 20260509091557 | 42 | 235 | 11.0 | 15.0 | 0.00 | 0.00 | 0.00 | 63 | 1021.7 |
| 20260509091020 | 42 | 234 | 11.0 | 15.0 | 0.00 | 0.00 | 0.00 | 63 | 1021.7 |
| 20260509090516 | 42 | 232 | 10.0 | 15.0 | 0.00 | 0.00 | 0.00 | 63 | 1021.8 |
| 20260509090105 | 42 | 216 | 9.0 | 20.0 | 0.00 | 0.00 | 0.00 | 63 | 1021.9 |
| 20260509085521 | 42 | 225 | 11.0 | 20.0 | 0.00 | 0.00 | 0.00 | 63 | 1021.7 |
| 20260509085019 | 42 | 238 | 10.0 | 14.0 | 0.00 | 0.00 | 0.00 | 63 | 1021.8 |
| 20260509084604 | 42 | 231 | 10.0 | 16.0 | 0.00 | 0.00 | 0.00 | 62 | 1021.8 |
| 20260509084022 | 42 | 246 | 11.0 | 16.0 | 0.00 | 0.00 | 0.00 | 62 | 1021.9 |
| 20260509083518 | 42 | 221 | 11.0 | 16.0 | 0.00 | 0.00 | 0.00 | 62 | 1021.8 |
| 20260509083053 | 42 | 229 | 11.0 | 13.0 | 0.00 | 0.00 | 0.00 | 62 | 1021.7 |
| 20260509082522 | 42 | 235 | 11.0 | 15.0 | 0.00 | 0.00 | 0.00 | 62 | 1021.7 |
| 20260509082020 | 42 | 253 | 11.0 | 15.0 | 0.00 | 0.00 | 0.00 | 62 | 1021.8 |
| 20260509081551 | 42 | 219 | 10.0 | 15.0 | 0.00 | 0.00 | 0.00 | 62 | 1021.6 |
| 20260509081019 | 42 | 232 | 10.0 | 13.0 | 0.00 | 0.00 | 0.00 | 61 | 1021.6 |
| 20260509080516 | 42 | 239 | 10.0 | 14.0 | 0.00 | 0.00 | 0.00 | 61 | 1021.5 |
| 20260509080048 | 42 | 244 | 10.0 | 15.0 | 0.00 | 0.00 | 0.00 | 61 | 1021.5 |
| 20260509075521 | 42 | 238 | 10.0 | 14.0 | 0.00 | 0.00 | 0.00 | 61 | 1021.4 |
| 20260509075019 | 42 | 248 | 10.0 | 13.0 | 0.00 | 0.00 | 0.00 | 60 | 1021.7 |
| 20260509074547 | 42 | 243 | 10.0 | 15.0 | 0.00 | 0.00 | 0.00 | 60 | 1021.5 |
| 20260509074015 | 42 | 257 | 10.0 | 15.0 | 0.00 | 0.00 | 0.00 | 59 | 1021.5 |
| 20260509073515 | 42 | 244 | 11.0 | 15.0 | 0.00 | 0.00 | 0.00 | 59 | 1021.3 |
| 20260509073047 | 42 | 220 | 10.0 | 15.0 | 0.00 | 0.00 | 0.00 | 58 | 1021.4 |
| 20260509072514 | 42 | 259 | 10.0 | 16.0 | 0.00 | 0.00 | 0.00 | 58 | 1021.2 |
| 20260509072015 | 42 | 259 | 11.0 | 16.0 | 0.00 | 0.00 | 0.00 | 58 | 1021.2 |
| 20260509071552 | 42 | 254 | 9.0 | 14.0 | 0.00 | 0.00 | 0.00 | 57 | 1021.1 |
| 20260509071018 | 42 | 239 | 10.0 | 13.0 | 0.00 | 0.00 | 0.00 | 57 | 1021.1 |
| 20260509070517 | 42 | 239 | 8.0 | 12.0 | 0.00 | 0.00 | 0.00 | 57 | 1021.1 |
| 20260509070050 | 42 | 202 | 8.0 | 12.0 | 0.00 | 0.00 | 0.00 | 56 | 1021.3 |
| 20260509065514 | 42 | 243 | 8.0 | 10.0 | 0.00 | 0.00 | 0.00 | 56 | 1021.4 |
| 20260509065019 | 42 | 223 | 8.0 | 11.0 | 0.00 | 0.00 | 0.00 | 56 | 1021.1 |
| 20260509064546 | 42 | 249 | 8.0 | 11.0 | 0.00 | 0.00 | 0.00 | 55 | 1021.3 |
| 20260509064019 | 42 | 242 | 8.0 | 10.0 | 0.00 | 0.00 | 0.00 | 54 | 1021.3 |
| 20260509063522 | 42 | 238 | 8.0 | 11.0 | 0.00 | 0.00 | 0.00 | 54 | 1021.2 |
| 20260509063103 | 42 | 229 | 8.0 | 11.0 | 0.00 | 0.00 | 0.00 | 54 | 1021.2 |
| 20260509062518 | 42 | 232 | 7.0 | 10.0 | 0.00 | 0.00 | 0.00 | 53 | 1021.1 |
| 20260509062021 | 42 | 229 | 6.0 | 8.0 | 0.00 | 0.00 | 0.00 | 53 | 1021.2 |
| 20260509061556 | 42 | 257 | 5.0 | 10.0 | 0.00 | 0.00 | 0.00 | 52 | 1021.3 |
| 20260509061015 | 43 | 259 | 5.0 | 10.0 | 0.00 | 0.00 | 0.00 | 52 | 1021.2 |
| 20260509060515 | 43 | 250 | 6.0 | 9.0 | 0.00 | 0.00 | 0.00 | 52 | 1021.1 |
| 20260509055516 | 43 | 229 | 6.0 | 14.0 | 0.00 | 0.00 | 0.00 | 51 | 1021.2 |
| 20260509055016 | 44 | 259 | 6.0 | 12.0 | 0.00 | 0.00 | 0.00 | 51 | 1020.9 |
| 20260509054549 | 44 | 232 | 7.0 | 12.0 | 0.00 | 0.00 | 0.00 | 50 | 1021.0 |
| 20260509054016 | 44 | 236 | 7.0 | 14.0 | 0.00 | 0.00 | 0.00 | 49 | 1020.8 |
| 20260509053516 | 44 | 224 | 7.0 | 17.0 | 0.00 | 0.00 | 0.00 | 49 | 1020.6 |
| 20260509053133 | 44 | 271 | 8.0 | 17.0 | 0.00 | 0.00 | 0.00 | 49 | 1020.5 |
| 20260509052516 | 44 | 251 | 8.0 | 17.0 | 0.00 | 0.00 | 0.00 | 49 | 1020.4 |
| 20260509052016 | 44 | 227 | 10.0 | 25.0 | 0.00 | 0.00 | 0.00 | 47 | 1020.3 |
| 20260509051608 | 44 | 251 | 13.0 | 25.0 | 0.00 | 0.00 | 0.00 | 47 | 1020.3 |
| 20260509051018 | 45 | 224 | 11.0 | 21.0 | 0.00 | 0.00 | 0.00 | 46 | 1020.3 |
| 20260509050520 | 45 | 254 | 12.0 | 20.0 | 0.00 | 0.00 | 0.00 | 46 | 1020.3 |
| 20260509050434 | 45 | 234 | 12.0 | 18.0 | 0.00 | 0.00 | 0.00 | 46 | 1020.2 |
| 20260509045512 | 45 | 220 | 13.0 | 20.0 | 0.00 | 0.00 | 0.00 | 45 | 1020.3 |
| 20260509045015 | 45 | 248 | 14.0 | 20.0 | 0.00 | 0.00 | 0.00 | 45 | 1020.4 |
| 20260509044547 | 44 | 248 | 13.0 | 20.0 | 0.00 | 0.00 | 0.00 | 45 | 1020.2 |
| 20260509044020 | 44 | 232 | 14.0 | 20.0 | 0.00 | 0.00 | 0.00 | 45 | 1020.1 |
| 20260509043518 | 44 | 220 | 12.0 | 17.0 | 0.00 | 0.00 | 0.00 | 45 | 1020.3 |
| 20260509043109 | 44 | 237 | 12.0 | 19.0 | 0.00 | 0.00 | 0.00 | 44 | 1020.3 |
| 20260509042520 | 44 | 245 | 11.0 | 19.0 | 0.00 | 0.00 | 0.00 | 44 | 1020.2 |
| 20260509042022 | 45 | 229 | 9.0 | 13.0 | 0.00 | 0.00 | 0.00 | 44 | 1020.3 |
| 20260509041600 | 45 | 242 | 9.0 | 15.0 | 0.00 | 0.00 | 0.00 | 44 | 1020.4 |
| 20260509041020 | 45 | 202 | 10.0 | 14.0 | 0.00 | 0.00 | 0.00 | 44 | 1020.2 |
| 20260509040516 | 45 | 225 | 9.0 | 15.0 | 0.00 | 0.00 | 0.00 | 44 | 1020.4 |
| 20260509040125 | 45 | 232 | 10.0 | 18.0 | 0.00 | 0.00 | 0.00 | 43 | 1020.1 |
| 20260509035515 | 45 | 240 | 10.0 | 18.0 | 0.00 | 0.00 | 0.00 | 42 | 1020.1 |
| 20260509035018 | 45 | 252 | 11.0 | 20.0 | 0.00 | 0.00 | 0.00 | 42 | 1020.1 |
| 20260509034559 | 45 | 244 | 10.0 | 17.0 | 0.00 | 0.00 | 0.00 | 41 | 1019.9 |
| 20260509034015 | 45 | 236 | 10.0 | 16.0 | 0.00 | 0.00 | 0.00 | 41 | 1019.7 |
| 20260509033515 | 46 | 247 | 11.0 | 16.0 | 0.00 | 0.00 | 0.00 | 40 | 1019.8 |
| 20260509033037 | 46 | 224 | 10.0 | 14.0 | 0.00 | 0.00 | 0.00 | 40 | 1019.4 |
| 20260509032516 | 46 | 223 | 11.0 | 17.0 | 0.00 | 0.00 | 0.00 | 39 | 1019.5 |
| 20260509032201 | 46 | 228 | 10.0 | 18.0 | 0.00 | 0.00 | 0.00 | 40 | 1019.3 |
| 20260509031602 | 46 | 238 | 10.0 | 16.0 | 0.00 | 0.00 | 0.00 | 40 | 1019.3 |
| 20260509031015 | 46 | 236 | 10.0 | 16.0 | 0.00 | 0.00 | 0.00 | 40 | 1019.3 |
| 20260509030517 | 47 | 252 | 10.0 | 16.0 | 0.00 | 0.00 | 0.00 | 40 | 1019.5 |
| 20260509030053 | 47 | 232 | 9.0 | 13.0 | 0.00 | 0.00 | 0.00 | 40 | 1019.5 |
| 20260509025517 | 47 | 228 | 8.0 | 13.0 | 0.00 | 0.00 | 0.00 | 40 | 1019.6 |
| 20260509025012 | 48 | 225 | 8.0 | 14.0 | 0.00 | 0.00 | 0.00 | 40 | 1019.6 |
| 20260509024550 | 48 | 224 | 8.0 | 14.0 | 0.00 | 0.00 | 0.00 | 40 | 1019.4 |
| 20260509024016 | 48 | 215 | 8.0 | 14.0 | 0.00 | 0.00 | 0.00 | 41 | 1019.4 |
| 20260509023514 | 48 | 196 | 8.0 | 14.0 | 0.00 | 0.00 | 0.00 | 40 | 1019.4 |
| 20260509023052 | 49 | 192 | 8.0 | 14.0 | 0.00 | 0.00 | 0.00 | 40 | 1019.3 |
| 20260509022518 | 49 | 236 | 9.0 | 14.0 | 0.00 | 0.00 | 0.00 | 40 | 1019.4 |
| 20260509022016 | 49 | 236 | 8.0 | 14.0 | 0.00 | 0.00 | 0.00 | 40 | 1019.1 |
| 20260509021551 | 50 | 236 | 9.0 | 14.0 | 0.00 | 0.00 | 0.00 | 40 | 1019.1 |
| 20260509021017 | 50 | 229 | 8.0 | 12.0 | 0.00 | 0.00 | 0.00 | 40 | 1019.1 |
| 20260509020520 | 50 | 232 | 8.0 | 13.0 | 0.00 | 0.00 | 0.00 | 40 | 1019.1 |
| 20260509020054 | 51 | 223 | 10.0 | 15.0 | 0.00 | 0.00 | 0.00 | 39 | 1018.9 |
| 20260509015517 | 51 | 232 | 8.0 | 18.0 | 0.00 | 0.00 | 0.00 | 39 | 1019.1 |
| 20260509015016 | 52 | 219 | 8.0 | 18.0 | 0.00 | 0.00 | 0.00 | 37 | 1018.8 |
| 20260509014600 | 52 | 234 | 7.0 | 15.0 | 0.00 | 0.00 | 0.00 | 38 | 1018.8 |
| 20260509014020 | 53 | 209 | 7.0 | 14.0 | 0.00 | 0.00 | 0.00 | 37 | 1018.9 |
| 20260509013518 | 53 | 273 | 8.0 | 20.0 | 0.00 | 0.00 | 0.00 | 36 | 1018.9 |
| 20260509013100 | 53 | 217 | 8.0 | 14.0 | 0.00 | 0.00 | 0.00 | 36 | 1018.9 |
| 20260509012520 | 54 | 231 | 8.0 | 14.0 | 0.00 | 0.00 | 0.00 | 36 | 1018.9 |
| 20260509012019 | 54 | 233 | 6.0 | 14.0 | 0.00 | 0.00 | 0.00 | 36 | 1019.0 |
| 20260509011623 | 54 | 200 | 7.0 | 22.0 | 0.00 | 0.00 | 0.00 | 35 | 1019.1 |
| 20260509011020 | 54 | 230 | 10.0 | 22.0 | 0.00 | 0.00 | 0.00 | 35 | 1019.0 |
| 20260509010519 | 54 | 231 | 9.0 | 17.0 | 0.00 | 0.00 | 0.00 | 34 | 1019.1 |
| 20260509010117 | 55 | 238 | 8.0 | 18.0 | 0.00 | 0.00 | 0.00 | 34 | 1019.0 |
| 20260509005517 | 55 | 235 | 7.0 | 18.0 | 0.00 | 0.00 | 0.00 | 33 | 1019.1 |
| 20260509005020 | 55 | 260 | 7.0 | 15.0 | 0.00 | 0.00 | 0.00 | 33 | 1019.1 |
| 20260509004610 | 56 | 202 | 6.0 | 14.0 | 0.00 | 0.00 | 0.00 | 32 | 1018.9 |
| 20260509004017 | 55 | 242 | 5.0 | 10.0 | 0.00 | 0.00 | 0.00 | 33 | 1018.9 |
| 20260509003517 | 55 | 231 | 5.0 | 11.0 | 0.00 | 0.00 | 0.00 | 33 | 1018.9 |
| 20260509003118 | 55 | 223 | 5.0 | 15.0 | 0.00 | 0.00 | 0.00 | 32 | 1018.9 |
| 20260509002520 | 55 | 250 | 6.0 | 15.0 | 0.00 | 0.00 | 0.00 | 31 | 1018.8 |
| 20260509002017 | 55 | 259 | 5.0 | 15.0 | 0.00 | 0.00 | 0.00 | 32 | 1018.9 |
| 20260509001608 | 55 | 186 | 7.0 | 16.0 | 0.00 | 0.00 | 0.00 | 30 | 1019.0 |
| 20260509001020 | 56 | 213 | 7.0 | 13.0 | 0.00 | 0.00 | 0.00 | 30 | 1018.9 |
| 20260509000517 | 54 | 255 | 5.0 | 10.0 | 0.00 | 0.00 | 0.00 | 31 | 1018.9 |
| 20260509000109 | 53 | 242 | 5.0 | 11.0 | 0.00 | 0.00 | 0.00 | 29 | 1018.9 |
| 20260508235519 | 53 | 211 | 6.0 | 10.0 | 0.00 | 0.00 | 0.00 | 30 | 1018.8 |
| 20260508235017 | 54 | 246 | 5.0 | 10.0 | 0.00 | 0.00 | 0.00 | 32 | 1019.1 |
| 20260508234610 | 54 | 221 | 5.0 | 10.0 | 0.00 | 0.00 | 0.00 | 31 | 1018.9 |
| 20260508234020 | 55 | 252 | 6.0 | 10.0 | 0.00 | 0.00 | 0.00 | 31 | 1018.9 |
| 20260508233521 | 55 | 229 | 4.0 | 9.0 | 0.00 | 0.00 | 0.00 | 32 | 1018.9 |
| 20260508233122 | 56 | 255 | 6.0 | 9.0 | 0.00 | 0.00 | 0.00 | 31 | 1018.8 |
| 20260508232520 | 56 | 254 | 5.0 | 15.0 | 0.00 | 0.00 | 0.00 | 30 | 1018.7 |
| 20260508232024 | 56 | 247 | 8.0 | 15.0 | 0.00 | 0.00 | 0.00 | 30 | 1018.6 |
| 20260508231551 | 56 | 228 | 8.0 | 15.0 | 0.00 | 0.00 | 0.00 | 30 | 1018.6 |
| 20260508231127 | 56 | 257 | 6.0 | 10.0 | 0.00 | 0.00 | 0.00 | 31 | 1018.6 |
| 20260508230530 | 55 | 244 | 6.0 | 9.0 | 0.00 | 0.00 | 0.00 | 31 | 1018.6 |
| 20260508230057 | 55 | 282 | 5.0 | 12.0 | 0.00 | 0.00 | 0.00 | 31 | 1018.7 |
| 20260508225515 | 55 | 297 | 6.0 | 11.0 | 0.00 | 0.00 | 0.00 | 31 | 1018.6 |
| 20260508225215 | 55 | 240 | 6.0 | 11.0 | 0.00 | 0.00 | 0.00 | 31 | 1018.6 |
| 20260508224603 | 56 | 238 | 5.0 | 10.0 | 0.00 | 0.00 | 0.00 | 31 | 1018.7 |
| 20260508224015 | 57 | 234 | 2.0 | 10.0 | 0.00 | 0.00 | 0.00 | 31 | 1018.9 |
| 20260508223529 | 57 | 202 | 4.0 | 8.0 | 0.00 | 0.00 | 0.00 | 31 | 1018.7 |
| 20260508223116 | 56 | 255 | 4.0 | 8.0 | 0.00 | 0.00 | 0.00 | 29 | 1018.7 |
| 20260508222519 | 57 | 240 | 4.0 | 11.0 | 0.00 | 0.00 | 0.00 | 30 | 1018.8 |
| 20260508222015 | 57 | 214 | 5.0 | 11.0 | 0.00 | 0.00 | 0.00 | 29 | 1018.9 |
| 20260508221552 | 58 | 247 | 4.0 | 13.0 | 0.00 | 0.00 | 0.00 | 27 | 1018.9 |
| 20260508221026 | 59 | 197 | 3.0 | 11.0 | 0.00 | 0.00 | 0.00 | 29 | 1018.8 |
| 20260508220521 | 59 | 236 | 2.0 | 10.0 | 0.00 | 0.00 | 0.00 | 29 | 1018.9 |
| 20260508220057 | 59 | 219 | 2.0 | 5.0 | 0.00 | 0.00 | 0.00 | 29 | 1018.8 |
| 20260508215517 | 59 | 272 | 2.0 | 6.0 | 0.00 | 0.00 | 0.00 | 28 | 1018.9 |
| 20260508215017 | 60 | 338 | 3.0 | 9.0 | 0.00 | 0.00 | 0.00 | 28 | 1018.5 |
| 20260508214526 | 61 | 262 | 3.0 | 10.0 | 0.00 | 0.00 | 0.00 | 28 | 1018.4 |
| 20260508214015 | 61 | 232 | 3.0 | 10.0 | 0.00 | 0.00 | 0.00 | 26 | 1018.6 |
| 20260508213515 | 61 | 255 | 2.0 | 7.0 | 0.00 | 0.00 | 0.00 | 28 | 1018.4 |
| 20260508213056 | 61 | 203 | 2.0 | 7.0 | 0.00 | 0.00 | 0.00 | 28 | 1018.4 |
| 20260508212517 | 61 | 74 | 1.0 | 10.0 | 0.00 | 0.00 | 0.00 | 27 | 1018.5 |
| 20260508212017 | 61 | 277 | 1.0 | 10.0 | 0.00 | 0.00 | 0.00 | 27 | 1018.4 |
| 20260508211559 | 61 | 196 | 1.0 | 7.0 | 0.00 | 0.00 | 0.00 | 27 | 1018.6 |
| 20260508211020 | 61 | 150 | 2.0 | 5.0 | 0.00 | 0.00 | 0.00 | 27 | 1018.7 |
| 20260508210520 | 60 | 225 | 2.0 | 7.0 | 0.00 | 0.00 | 0.00 | 30 | 1018.6 |
| 20260508210107 | 60 | 360 | 2.0 | 8.0 | 0.00 | 0.00 | 0.00 | 28 | 1018.7 |
| 20260508205518 | 59 | 182 | 1.0 | 8.0 | 0.00 | 0.00 | 0.00 | 31 | 1018.7 |
| 20260508205023 | 59 | 196 | 2.0 | 9.0 | 0.00 | 0.00 | 0.00 | 28 | 1018.6 |
| 20260508204556 | 58 | 5 | 1.0 | 9.0 | 0.00 | 0.00 | 0.00 | 28 | 1018.6 |
| 20260508204019 | 58 | 265 | 2.0 | 4.0 | 0.00 | 0.00 | 0.00 | 26 | 1018.7 |
| 20260508203517 | 58 | 194 | 1.0 | 6.0 | 0.00 | 0.00 | 0.00 | 29 | 1018.6 |
| 20260508203102 | 57 | 207 | 3.0 | 7.0 | 0.00 | 0.00 | 0.00 | 28 | 1018.4 |
| 20260508202516 | 56 | 167 | 3.0 | 7.0 | 0.00 | 0.00 | 0.00 | 28 | 1018.3 |
| 20260508202020 | 55 | 213 | 2.0 | 7.0 | 0.00 | 0.00 | 0.00 | 28 | 1018.3 |
| 20260508201555 | 55 | 230 | 2.0 | 5.0 | 0.00 | 0.00 | 0.00 | 28 | 1018.3 |
| 20260508201020 | 55 | 246 | 1.0 | 5.0 | 0.00 | 0.00 | 0.00 | 27 | 1018.3 |
| 20260508200520 | 55 | 221 | 2.0 | 6.0 | 0.00 | 0.00 | 0.00 | 27 | 1018.2 |
| 20260508200122 | 55 | 248 | 3.0 | 6.0 | 0.00 | 0.00 | 0.00 | 26 | 1018.0 |
| 20260508195518 | 55 | 221 | 2.0 | 6.0 | 0.00 | 0.00 | 0.00 | 28 | 1017.8 |
| 20260508195015 | 55 | 232 | 2.0 | 8.0 | 0.00 | 0.00 | 0.00 | 28 | 1017.8 |
| 20260508194608 | 55 | 309 | 3.0 | 8.0 | 0.00 | 0.00 | 0.00 | 26 | 1017.8 |
| 20260508194020 | 56 | 66 | 2.0 | 10.0 | 0.00 | 0.00 | 0.00 | 25 | 1018.0 |
| 20260508193523 | 56 | 5 | 2.0 | 10.0 | 0.00 | 0.00 | 0.00 | 27 | 1017.9 |
| 20260508193116 | 57 | 113 | 0.0 | 7.0 | 0.00 | 0.00 | 0.00 | 28 | 1018.1 |
| 20260508192522 | 57 | 259 | 2.0 | 7.0 | 0.00 | 0.00 | 0.00 | 27 | 1018.0 |
| 20260508192017 | 59 | 207 | 2.0 | 7.0 | 0.00 | 0.00 | 0.00 | 25 | 1017.9 |
| 20260508191555 | 59 | 205 | 3.0 | 7.0 | 0.00 | 0.00 | 0.00 | 22 | 1017.9 |
| 20260508191011 | 59 | 248 | 2.0 | 5.0 | 0.00 | 0.00 | 0.00 | 26 | 1017.8 |
| 20260508190513 | 58 | 318 | 2.0 | 5.0 | 0.00 | 0.00 | 0.00 | 26 | 1017.8 |
| 20260508190051 | 57 | 233 | 2.0 | 6.0 | 0.00 | 0.00 | 0.00 | 26 | 1017.7 |
| 20260508185518 | 57 | 202 | 2.0 | 6.0 | 0.00 | 0.00 | 0.00 | 28 | 1017.9 |
| 20260508185014 | 56 | 209 | 1.0 | 4.0 | 0.00 | 0.00 | 0.00 | 28 | 1018.0 |
| 20260508184555 | 57 | 279 | 2.0 | 6.0 | 0.00 | 0.00 | 0.00 | 26 | 1018.0 |
| 20260508184015 | 58 | 229 | 2.0 | 6.0 | 0.00 | 0.00 | 0.00 | 28 | 1018.0 |
| 20260508183512 | 58 | 71 | 1.0 | 3.0 | 0.00 | 0.00 | 0.00 | 31 | 1018.1 |
| 20260508183054 | 57 | 227 | 1.0 | 3.0 | 0.00 | 0.00 | 0.00 | 35 | 1017.9 |
| 20260508182513 | 56 | 126 | 0.0 | 5.0 | 0.00 | 0.00 | 0.00 | 50 | 1017.8 |
| 20260508182012 | 56 | 109 | 1.0 | 6.0 | 0.00 | 0.00 | 0.00 | 46 | 1017.9 |
| 20260508181553 | 54 | 172 | 1.0 | 3.0 | 0.00 | 0.00 | 0.00 | 42 | 1017.8 |
| 20260508181016 | 54 | 82 | 1.0 | 4.0 | 0.00 | 0.00 | 0.00 | 41 | 1017.7 |
| 20260508180523 | 55 | 83 | 1.0 | 4.0 | 0.00 | 0.00 | 0.00 | 47 | 1017.8 |
| 20260508180112 | 56 | 130 | 2.0 | 5.0 | 0.00 | 0.00 | 0.00 | 47 | 1017.8 |
| 20260508175515 | 56 | 40 | 2.0 | 5.0 | 0.00 | 0.00 | 0.00 | 51 | 1017.9 |
| 20260508175013 | 57 | 36 | 1.0 | 5.0 | 0.00 | 0.00 | 0.00 | 48 | 1017.8 |
| 20260508174542 | 57 | 352 | 1.0 | 5.0 | 0.00 | 0.00 | 0.00 | 39 | 1017.9 |
| 20260508174019 | 57 | 188 | 1.0 | 6.0 | 0.00 | 0.00 | 0.00 | 43 | 1017.7 |
| 20260508173517 | 57 | 105 | 0.0 | 4.0 | 0.00 | 0.00 | 0.00 | 48 | 1017.8 |
| 20260508173108 | 57 | 157 | 2.0 | 5.0 | 0.00 | 0.00 | 0.00 | 42 | 1017.6 |
| 20260508172522 | 57 | 210 | 2.0 | 5.0 | 0.00 | 0.00 | 0.00 | 35 | 1017.6 |
| 20260508172014 | 56 | 219 | 1.0 | 4.0 | 0.00 | 0.00 | 0.00 | 40 | 1017.7 |
| 20260508171551 | 55 | 169 | 1.0 | 5.0 | 0.00 | 0.00 | 0.00 | 48 | 1017.7 |
| 20260508171015 | 54 | 279 | 1.0 | 5.0 | 0.00 | 0.00 | 0.00 | 38 | 1017.8 |
| 20260508170516 | 53 | 221 | 2.0 | 5.0 | 0.00 | 0.00 | 0.00 | 39 | 1017.5 |
| 20260508170046 | 52 | 216 | 1.0 | 5.0 | 0.00 | 0.00 | 0.00 | 36 | 1017.4 |
| 20260508165514 | 52 | 321 | 1.0 | 8.0 | 0.00 | 0.00 | 0.00 | 33 | 1017.3 |
| 20260508165014 | 52 | 306 | 3.0 | 8.0 | 0.00 | 0.00 | 0.00 | 34 | 1017.4 |